Location: Ariel
(45.9570°N, 122.5700°W)
Time: 19:26:11
(UTC-07:00)

Transit 4A - Pass Details

Date: 26 July 2019
Orbit: 863 x 981 km, 66.8° (Epoch: 24 August)

Event Time Altitude Azimuth Distance (km) Brightness Sun altitude
Rises 01:44:30 0° 212° (SSW) 3,642 - -24.3°
Reaches altitude 10° 01:47:02 10° 212° (SSW) 2,709 - -24.2°
Exits shadow 01:51:33 50° 215° (SW) 1,234 8.1 -24.1°
Maximum altitude 01:53:25 87° 301° (WNW) 987 7.9 -24.1°
Drops below altitude 10° 01:59:53 10° 33° (NNE) 2,740 11.3 -23.9°
Sets 02:02:27 0° 34° (NNE) 3,686 12.2 -23.8°
